Previsão horária em Allenwil

Hoje, 16 Janeiro, Sábado

Tempo Temperatura Precipitação Vento Pressão Humidade
00:00 -7°C° 0 mm 2 m/s 717 mmHg 94%
01:00 -6°C° 0 mm 1 m/s 718 mmHg 94%
02:00 -7°C° 0 mm 1 m/s 718 mmHg 94%
03:00 -7°C° 0 mm 1 m/s 718 mmHg 93%
04:00 -7°C° 0 mm 1 m/s 718 mmHg 92%
05:00 -7°C° 0 mm 1 m/s 718 mmHg 91%
06:00 -7°C° 0 mm 0 m/s 718 mmHg 91%
07:00 -6°C° 0 mm 0 m/s 718 mmHg 89%
08:00 -5°C° 0 mm 0 m/s 718 mmHg 87%
09:00 -5°C° 0 mm 0 m/s 718 mmHg 85%
10:00 -3°C° 0 mm 0 m/s 717 mmHg 82%
11:00 -2°C° 0 mm 0 m/s 717 mmHg 79%
12:00 -1°C° 0 mm 0 m/s 717 mmHg 76%
13:00 0°C° 0 mm 1 m/s 716 mmHg 78%
14:00 0°C° 0 mm 1 m/s 716 mmHg 80%
15:00 0°C° 0 mm 1 m/s 716 mmHg 82%
16:00 -1°C° 0 mm 1 m/s 716 mmHg 84%
17:00 -1°C° 0 mm 1 m/s 715 mmHg 85%
18:00 -2°C° 0 mm 1 m/s 715 mmHg 87%
19:00 -1°C° 0.1 mm 1 m/s 715 mmHg 87%
20:00 -3°C° 0.1 mm 2 m/s 715 mmHg 87%
21:00 -3°C° 0.1 mm 2 m/s 715 mmHg 88%
22:00 -2°C° 0.5 mm 3 m/s 714 mmHg 90%
23:00 -2°C° 0.5 mm 3 m/s 714 mmHg 92%

Amanhã, 17 Janeiro, Domingo

Tempo Temperatura Precipitação Vento Pressão Humidade
00:00 -1°C° 0.5 mm 3 m/s 713 mmHg 95%
01:00 -1°C° 0.9 mm 3 m/s 712 mmHg 96%
02:00 -1°C° 0.9 mm 3 m/s 712 mmHg 96%
03:00 0°C° 0.9 mm 3 m/s 711 mmHg 97%
04:00 0°C° 0.4 mm 3 m/s 712 mmHg 97%
05:00 0°C° 0.4 mm 3 m/s 712 mmHg 98%
06:00 +1°C° 0.4 mm 3 m/s 712 mmHg 98%
07:00 +1°C° 0.2 mm 3 m/s 712 mmHg 98%
08:00 +1°C° 0.2 mm 3 m/s 712 mmHg 97%
09:00 +1°C° 0.2 mm 3 m/s 712 mmHg 97%
10:00 +1°C° 0.6 mm 3 m/s 713 mmHg 97%
11:00 +1°C° 0.6 mm 3 m/s 713 mmHg 98%
12:00 +1°C° 0.6 mm 3 m/s 713 mmHg 98%
13:00 +1°C° 0.9 mm 3 m/s 713 mmHg 98%
14:00 0°C° 0.9 mm 3 m/s 713 mmHg 98%
15:00 +1°C° 0.9 mm 2 m/s 714 mmHg 97%
16:00 +1°C° 0.5 mm 2 m/s 715 mmHg 97%
17:00 -1°C° 0.5 mm 2 m/s 715 mmHg 97%
18:00 +1°C° 0.5 mm 1 m/s 716 mmHg 97%
19:00 +1°C° 0.3 mm 1 m/s 717 mmHg 97%
20:00 0°C° 0.3 mm 1 m/s 717 mmHg 97%
21:00 0°C° 0.3 mm 1 m/s 718 mmHg 96%
22:00 -1°C° 0.1 mm 1 m/s 718 mmHg 96%
23:00 -1°C° 0.1 mm 1 m/s 718 mmHg 95%

Depois de amanhã, 18 Janeiro, Segunda-feira

Tempo Temperatura Precipitação Vento Pressão Humidade
00:00 -1°C° 0.1 mm 1 m/s 718 mmHg 95%
01:00 -1°C° 0 mm 1 m/s 718 mmHg 94%
02:00 -2°C° 0 mm 1 m/s 718 mmHg 94%
03:00 -2°C° 0 mm 1 m/s 718 mmHg 94%
04:00 -2°C° 0 mm 1 m/s 719 mmHg 94%
05:00 -2°C° 0 mm 1 m/s 719 mmHg 94%
06:00 -3°C° 0 mm 1 m/s 719 mmHg 93%
07:00 -2°C° 0 mm 1 m/s 719 mmHg 93%
08:00 -1°C° 0 mm 1 m/s 719 mmHg 92%
09:00 -2°C° 0 mm 0 m/s 720 mmHg 91%
10:00 -1°C° 0 mm 0 m/s 719 mmHg 90%
11:00 0°C° 0 mm 0 m/s 719 mmHg 89%
12:00 +1°C° 0 mm 0 m/s 719 mmHg 89%
13:00 +1°C° 0 mm 0 m/s 718 mmHg 90%
14:00 +1°C° 0 mm 0 m/s 718 mmHg 91%
15:00 +1°C° 0 mm 0 m/s 718 mmHg 92%
16:00 -1°C° 0 mm 0 m/s 718 mmHg 92%
17:00 -2°C° 0 mm 0 m/s 718 mmHg 92%
18:00 -3°C° 0 mm 0 m/s 718 mmHg 93%
19:00 -2°C° 0 mm 1 m/s 718 mmHg 92%
20:00 -2°C° 0 mm 1 m/s 718 mmHg 91%
21:00 -2°C° 0 mm 1 m/s 718 mmHg 90%
22:00 -3°C° 0 mm 1 m/s 717 mmHg 89%
23:00 -3°C° 0 mm 1 m/s 717 mmHg 88%

19 Janeiro, Terça-feira

Tempo Temperatura Precipitação Vento Pressão Humidade
00:00 -3°C° 0 mm 1 m/s 717 mmHg 87%
01:00 -3°C° 0 mm 1 m/s 716 mmHg 87%
02:00 -3°C° 0 mm 1 m/s 716 mmHg 86%
03:00 -3°C° 0 mm 1 m/s 715 mmHg 85%
04:00 -2°C° 0 mm 1 m/s 715 mmHg 84%
05:00 -4°C° 0 mm 2 m/s 715 mmHg 83%
06:00 -4°C° 0 mm 2 m/s 715 mmHg 82%
07:00 -3°C° 0 mm 2 m/s 714 mmHg 81%
08:00 -2°C° 0 mm 2 m/s 714 mmHg 80%
09:00 -1°C° 0 mm 2 m/s 714 mmHg 79%
10:00 +1°C° 0 mm 2 m/s 714 mmHg 81%
11:00 +3°C° 0 mm 2 m/s 713 mmHg 82%
12:00 +4°C° 0 mm 2 m/s 713 mmHg 84%
13:00 +3°C° 0 mm 2 m/s 712 mmHg 84%
14:00 +3°C° 0 mm 2 m/s 712 mmHg 84%
15:00 +3°C° 0 mm 2 m/s 712 mmHg 84%
16:00 +2°C° 0 mm 2 m/s 712 mmHg 83%
17:00 +1°C° 0 mm 2 m/s 712 mmHg 81%
18:00 -1°C° 0 mm 2 m/s 712 mmHg 79%
19:00 -1°C° 0 mm 2 m/s 712 mmHg 79%
20:00 -1°C° 0 mm 2 m/s 712 mmHg 79%
21:00 -1°C° 0 mm 2 m/s 711 mmHg 80%
22:00 -1°C° 0 mm 2 m/s 711 mmHg 79%
23:00 -1°C° 0 mm 2 m/s 711 mmHg 79%

20 Janeiro, Quarta-feira

Tempo Temperatura Precipitação Vento Pressão Humidade
00:00 -1°C° 0 mm 2 m/s 710 mmHg 79%
01:00 -1°C° 0 mm 2 m/s 710 mmHg 79%
02:00 -1°C° 0 mm 2 m/s 710 mmHg 79%
03:00 -1°C° 0 mm 2 m/s 709 mmHg 79%
04:00 -1°C° 0 mm 2 m/s 709 mmHg 79%
05:00 -1°C° 0 mm 2 m/s 708 mmHg 79%
06:00 -1°C° 0 mm 2 m/s 708 mmHg 79%
07:00 +1°C° 0 mm 2 m/s 708 mmHg 79%
08:00 +1°C° 0 mm 2 m/s 707 mmHg 80%
09:00 +3°C° 0 mm 1 m/s 707 mmHg 80%
10:00 +4°C° 0 mm 1 m/s 706 mmHg 81%
11:00 +4°C° 0 mm 1 m/s 706 mmHg 83%
12:00 +5°C° 0 mm 1 m/s 705 mmHg 84%
13:00 +5°C° 0 mm 1 m/s 705 mmHg 85%
14:00 +5°C° 0 mm 1 m/s 704 mmHg 86%
15:00 +4°C° 0 mm 1 m/s 703 mmHg 87%
16:00 +3°C° 0 mm 1 m/s 703 mmHg 86%
17:00 +2°C° 0 mm 1 m/s 703 mmHg 85%
18:00 +2°C° 0 mm 1 m/s 703 mmHg 84%
19:00 +2°C° 0 mm 1 m/s 703 mmHg 85%
20:00 +1°C° 0 mm 2 m/s 703 mmHg 85%
21:00 +1°C° 0 mm 2 m/s 703 mmHg 86%
22:00 +1°C° 0 mm 2 m/s 703 mmHg 86%
23:00 +1°C° 0 mm 2 m/s 702 mmHg 86%

21 Janeiro, Quinta-feira

Tempo Temperatura Precipitação Vento Pressão Humidade
00:00 +1°C° 0 mm 2 m/s 702 mmHg 86%
01:00 +2°C° 0 mm 2 m/s 702 mmHg 85%
02:00 +1°C° 0 mm 3 m/s 702 mmHg 85%
03:00 +1°C° 0 mm 3 m/s 702 mmHg 84%
04:00 0°C° 0.5 mm 4 m/s 703 mmHg 87%
05:00 +1°C° 0.5 mm 4 m/s 703 mmHg 90%
06:00 +1°C° 0.5 mm 5 m/s 704 mmHg 92%
07:00 +1°C° 1.1 mm 5 m/s 704 mmHg 94%
08:00 +1°C° 1.1 mm 4 m/s 704 mmHg 95%
09:00 +2°C° 1.1 mm 3 m/s 704 mmHg 96%
10:00 +2°C° 0.5 mm 3 m/s 704 mmHg 96%
11:00 +3°C° 0.5 mm 3 m/s 704 mmHg 96%
12:00 +3°C° 0.5 mm 3 m/s 704 mmHg 95%
13:00 +3°C° 0 mm 3 m/s 704 mmHg 94%
14:00 +3°C° 0 mm 3 m/s 704 mmHg 93%
15:00 +3°C° 0 mm 3 m/s 704 mmHg 92%
16:00 +3°C° 0 mm 3 m/s 704 mmHg 92%
17:00 +2°C° 0 mm 3 m/s 703 mmHg 92%
18:00 +2°C° 0 mm 3 m/s 703 mmHg 92%
19:00 +2°C° 0 mm 3 m/s 703 mmHg 91%
20:00 +2°C° 0 mm 2 m/s 702 mmHg 90%
21:00 +2°C° 0 mm 2 m/s 702 mmHg 89%
22:00 +2°C° 0 mm 2 m/s 701 mmHg 88%
23:00 +3°C° 0 mm 1 m/s 700 mmHg 88%
Mostrar mais

Necessitamos do seu Consentimento

A Meteoprog e os seus Fornecedores de Serviços podem armazenar e aceder a dados pessoais como cookies, identificadores do dispositivo ou outras tecnologias semelhantes existentes no seu dispositivo e processar estes dados para personalizar conteúdos e anúncios, assim como funcionalidades nas redes sociais e análise de tráfego.

  • Armazenar e/ou aceder a informações no seu dispositivo

    Os cookies, identificadores do dispositivo ou outras informações podem ser armazenados ou acedidos no seu dispositivo, para os fins acima indicados.

  • Anúncios e conteúdos personalizados, medição de anúncios e conteúdos, dados sobre o público-alvo e desenvolvimento de produtos

    Os anúncios e os conteúdos podem ser personalizados com base num perfil. Podem ser adicionados dados adicionais para uma maior personalização dos anúncios e dos conteúdos. A eficácia dos anúncios e dos conteúdos pode ser medida. Podem ser obtidas informações sobre o público que visualizou os anúncios e os conteúdos. Estes dados podem ser usados para desenvolver ou melhorar sistemas, softwares ou a experiência do utilizador.

Ao clicar em "Eu concordo”, permitirá o uso de cookies, identificadores do dispositivo e web beacons mencionados ou outras tecnologias semelhantes. As configurações do navegador do seu dispositivo podem ser alteradas.

Para certos fins, podem ser invocados interesses legítimos ao invés de consentimento. Pode ler mais informação sobre este assunto na nossa Política de Privacidade e Cookies.